KD2RHT-13 Weather Reports


Display with metric or nautical units.
time (UTC)temp
F
wind
direction
speed
MPH
gust
MPH
rain 1hr
in
rain 24hr
in
rain mn
in
humidity
%
barometer
mb
20260904043821 69 162 0.0 0.0 0.00 0.00 0.00 99 1014.5
20260904043317 69 162 0.0 0.0 0.00 0.00 0.00 99 1014.9
20260904042812 69 162 0.0 0.0 0.00 0.00 0.00 99 1014.5
20260904042308 69 162 0.0 0.0 0.00 0.00 0.00 99 1014.2
20260904041808 69 162 0.0 0.0 0.00 0.00 0.00 99 1014.2
20260904041304 69 162 0.0 0.0 0.00 0.00 0.00 99 1014.5
20260904040800 69 162 0.0 0.0 0.00 0.00 0.00 99 1014.5
20260904040255 69 162 0.0 0.0 0.00 0.00 0.00 99 1014.5
20260904035751 69 162 0.0 0.0 0.00 0.00 0.00 99 1014.2
20260904035247 69 162 0.0 0.0 0.00 0.00 0.00 99 1014.5
20260904034745 70 162 0.0 0.0 0.00 0.00 0.00 99 1014.2
20260904034241 69 162 0.0 0.0 0.00 0.00 0.00 99 1014.5
20260904033737 70 162 0.0 0.0 0.00 0.00 0.00 99 1014.2
20260904033234 69 162 0.0 0.0 0.00 0.00 0.00 99 1014.5
20260904032730 69 162 0.0 0.0 0.00 0.00 0.00 99 1014.5
20260904032228 69 162 0.0 0.0 0.00 0.00 0.00 98 1014.2
20260904031723 70 162 0.0 0.0 0.00 0.00 0.00 98 1014.5
20260904031219 70 162 0.0 0.0 0.00 0.00 0.00 98 1014.5
20260904030714 70 162 0.0 0.0 0.00 0.00 0.00 97 1014.5
20260904030209 70 162 0.0 0.0 0.00 0.00 0.00 97 1014.5
20260904025706 70 165 0.0 0.0 0.00 0.00 0.00 97 1014.5
20260904025201 70 162 0.0 0.0 0.00 0.00 0.00 97 1014.5
20260904024656 70 162 0.0 0.0 0.00 0.00 0.00 97 1014.5
20260904024151 70 162 0.0 0.0 0.00 0.00 0.00 97 1014.5
20260904023648 70 162 0.0 0.0 0.00 0.00 0.00 97 1014.5
20260904023143 70 162 0.0 0.0 0.00 0.00 0.00 96 1014.2
20260904022643 70 162 0.0 0.0 0.00 0.00 0.00 96 1014.5
20260904022140 70 162 0.0 0.0 0.00 0.00 0.00 96 1014.9
20260904021636 70 162 0.0 0.0 0.00 0.00 0.00 96 1014.9
20260904021130 70 173 0.0 0.0 0.00 0.00 0.00 96 1014.5
20260904020627 70 158 0.0 0.0 0.00 0.00 0.00 95 1014.9
20260904020120 70 162 0.0 0.0 0.00 0.00 0.00 95 1014.9
20260904015615 71 162 0.0 0.0 0.00 0.00 0.00 95 1014.9
20260904015114 71 163 0.0 0.0 0.00 0.00 0.00 94 1015.2
20260904014608 71 165 0.0 0.0 0.00 0.00 0.00 94 1014.5
20260904014103 71 162 0.0 0.0 0.00 0.00 0.00 94 1014.9
20260904013600 71 163 0.0 0.0 0.00 0.00 0.00 93 1014.9
20260904013056 72 163 0.0 0.0 0.00 0.00 0.00 93 1014.9
20260904012556 72 164 0.0 0.0 0.00 0.00 0.00 92 1014.5
20260904012050 72 156 0.0 0.0 0.00 0.00 0.00 92 1014.2
20260904011549 72 158 0.0 0.0 0.00 0.00 0.00 91 1014.5
20260904011045 72 147 0.0 0.0 0.00 0.00 0.00 91 1014.5
20260904010541 72 158 0.0 0.0 0.00 0.00 0.00 90 1014.9
20260904010037 72 158 0.0 0.0 0.00 0.00 0.00 90 1014.9
20260904005537 72 159 0.0 0.0 0.00 0.00 0.00 90 1014.5
20260904005032 72 161 0.0 0.0 0.00 0.00 0.00 89 1015.2
20260904004528 72 162 0.0 0.0 0.00 0.00 0.00 89 1014.5
20260904004023 73 162 0.0 0.0 0.00 0.00 0.00 89 1014.9
20260904003519 73 163 0.0 0.0 0.00 0.00 0.00 89 1014.5
20260904003014 73 160 0.0 0.0 0.00 0.00 0.00 88 1014.9
20260904002510 73 159 0.0 0.0 0.00 0.00 0.00 87 1014.5
20260904002009 73 159 0.0 0.0 0.00 0.00 0.00 86 1014.9
20260904001505 73 158 0.0 0.0 0.00 0.00 0.00 86 1014.5
20260904001005 73 162 0.0 0.0 0.00 0.00 0.00 85 1014.5
20260904000504 74 162 0.0 0.0 0.00 0.00 0.00 84 1014.5
20260904000000 74 164 0.0 0.0 0.00 0.00 0.00 84 1014.5
20260903235455 74 162 0.0 0.0 0.00 0.00 0.00 83 1014.5
20260903234954 75 162 0.0 0.0 0.00 0.00 0.00 83 1014.5
20260903234450 75 161 0.0 0.0 0.00 0.00 0.00 82 1014.2
20260903233946 75 162 0.0 0.0 0.00 0.00 0.00 81 1014.2
20260903233442 75 162 0.0 0.0 0.00 0.00 0.00 80 1014.5
20260903232937 76 162 0.0 0.0 0.00 0.00 0.00 80 1014.5
20260903232432 76 162 0.0 0.0 0.00 0.00 0.00 80 1014.2
20260903231932 76 158 0.0 0.0 0.00 0.00 0.00 79 1014.5
20260903231427 77 164 0.0 0.0 0.00 0.00 0.00 79 1014.2
20260903230921 77 162 0.0 0.0 0.00 0.00 0.00 78 1014.2
20260903230417 77 175 0.0 1.0 0.00 0.00 0.00 78 1014.5
20260903225914 77 173 1.0 1.0 0.00 0.00 0.00 78 1013.9
20260903225409 78 163 0.0 0.0 0.00 0.00 0.00 79 1014.2
20260903224905 78 161 0.0 0.0 0.00 0.00 0.00 78 1014.2
20260903224401 78 158 0.0 0.0 0.00 0.00 0.00 78 1014.2
20260903223857 78 169 0.0 0.0 0.00 0.00 0.00 78 1014.2
20260903223355 78 158 0.0 0.0 0.00 0.00 0.00 76 1013.9
20260903222850 79 162 0.0 0.0 0.00 0.00 0.00 76 1013.9
20260903222350 79 168 0.0 0.0 0.00 0.00 0.00 76 1014.2
20260903221845 79 169 0.0 1.0 0.00 0.00 0.00 77 1014.2
20260903221344 79 157 0.0 0.0 0.00 0.00 0.00 76 1014.2
20260903220842 80 146 0.0 0.0 0.00 0.00 0.00 76 1013.9
20260903220336 80 157 0.0 0.0 0.00 0.00 0.00 76 1014.2
20260903215834 80 164 0.0 0.0 0.00 0.00 0.00 76 1013.9
20260903215331 80 160 0.0 0.0 0.00 0.00 0.00 77 1014.2
20260903214829 80 166 0.0 0.0 0.00 0.00 0.00 75 1013.9
20260903214326 80 150 1.0 1.0 0.00 0.00 0.00 74 1013.9
20260903213820 80 167 0.0 0.0 0.00 0.00 0.00 75 1013.9
20260903213315 81 176 0.0 1.0 0.00 0.00 0.00 75 1013.9
20260903212811 81 164 0.0 0.0 0.00 0.00 0.00 76 1013.9
20260903212308 82 164 0.0 1.0 0.00 0.00 0.00 76 1013.9
20260903211806 82 154 0.0 0.0 0.00 0.00 0.00 76 1013.9
20260903211303 82 151 0.0 0.0 0.00 0.00 0.00 74 1013.9
20260903210758 82 54 0.0 1.0 0.00 0.00 0.00 75 1013.9
20260903210254 82 169 1.0 2.0 0.00 0.00 0.00 75 1014.2
20260903205748 82 174 0.0 1.0 0.00 0.00 0.00 76 1014.5
20260903205247 82 262 1.0 2.0 0.00 0.00 0.00 74 1014.2
20260903204742 82 197 2.0 2.0 0.00 0.00 0.00 72 1014.2
20260903204233 82 244 1.0 2.0 0.00 0.00 0.00 72 1014.2
20260903203729 83 233 1.0 2.0 0.00 0.00 0.00 73 1014.5
20260903203224 83 163 0.0 1.0 0.00 0.00 0.00 72 1014.5
20260903202717 83 224 3.0 5.0 0.00 0.00 0.00 71 1014.2
20260903202214 82 169 0.0 0.0 0.00 0.00 0.00 71 1014.2
20260903201713 83 161 0.0 0.0 0.00 0.00 0.00 70 1014.2
20260903201208 83 154 0.0 0.0 0.00 0.00 0.00 70 1014.2
20260903200702 84 115 1.0 1.0 0.00 0.00 0.00 70 1014.2
20260903200158 82 159 0.0 0.0 0.00 0.00 0.00 71 1014.5
20260903195654 83 169 0.0 0.0 0.00 0.00 0.00 71 1014.2
20260903195149 83 124 1.0 1.0 0.00 0.00 0.00 69 1014.9
20260903194649 84 160 0.0 0.0 0.00 0.00 0.00 68 1014.5
20260903194144 85 189 0.0 0.0 0.00 0.00 0.00 67 1014.5
20260903193640 84 167 0.0 0.0 0.00 0.00 0.00 68 1014.5
20260903193135 84 176 0.0 0.0 0.00 0.00 0.00 67 1014.5
20260903192632 85 153 2.0 3.0 0.00 0.00 0.00 68 1014.5
20260903192132 84 96 2.0 3.0 0.00 0.00 0.00 67 1014.5
20260903191628 83 294 3.0 5.0 0.00 0.00 0.00 67 1014.5
20260903191128 85 172 1.0 1.0 0.00 0.00 0.00 66 1014.9
20260903190627 85 153 1.0 1.0 0.00 0.00 0.00 64 1014.9
20260903190122 85 239 3.0 3.0 0.00 0.00 0.00 66 1014.5
20260903185618 85 163 0.0 0.0 0.00 0.00 0.00 66 1014.5
20260903185117 86 164 0.0 0.0 0.00 0.00 0.00 68 1014.5
20260903184614 85 242 1.0 2.0 0.00 0.00 0.00 67 1014.9
20260903184110 86 216 1.0 1.0 0.00 0.00 0.00 65 1014.9
20260903183608 85 25 3.0 5.0 0.00 0.00 0.00 67 1014.9
20260903183104 85 256 3.0 5.0 0.00 0.00 0.00 67 1014.9
20260903182603 84 205 1.0 1.0 0.00 0.00 0.00 68 1014.9
20260903182059 84 137 1.0 2.0 0.00 0.00 0.00 69 1014.9
20260903181557 85 177 1.0 1.0 0.00 0.00 0.00 68 1014.9
20260903181052 86 144 1.0 1.0 0.00 0.00 0.00 68 1014.9
20260903180547 85 158 0.0 0.0 0.00 0.00 0.00 70 1014.9
20260903180047 85 182 2.0 2.0 0.00 0.00 0.00 68 1014.9
20260903175545 84 163 0.0 0.0 0.00 0.00 0.00 68 1014.9
20260903175045 84 250 2.0 2.0 0.00 0.00 0.00 65 1014.9
20260903174540 85 187 0.0 1.0 0.00 0.00 0.00 69 1014.9
20260903174035 84 169 0.0 0.0 0.00 0.00 0.00 70 1014.9
20260903173530 84 179 1.0 1.0 0.00 0.00 0.00 68 1014.9
20260903173026 82 144 0.0 1.0 0.00 0.00 0.00 76 1014.9
20260903172520 82 116 2.0 3.0 0.00 0.00 0.00 74 1014.9
20260903172016 82 223 2.0 2.0 0.00 0.00 0.00 71 1015.2
20260903171511 82 143 1.0 2.0 0.00 0.00 0.00 73 1015.2
20260903171006 81 164 0.0 1.0 0.00 0.00 0.00 74 1014.9
20260903170505 82 159 0.0 1.0 0.00 0.00 0.00 71 1014.9
20260903170000 82 137 0.0 0.0 0.00 0.00 0.00 74 1015.2
20260903165458 81 164 1.0 1.0 0.00 0.00 0.00 73 1015.2
20260903164954 82 347 4.0 5.0 0.00 0.00 0.00 71 1015.6
20260903164443 83 309 1.0 2.0 0.00 0.00 0.00 71 1015.2
20260903163943 84 159 2.0 2.0 0.00 0.00 0.00 71 1015.2
20260903163439 83 157 1.0 2.0 0.00 0.00 0.00 73 1015.2
20260903162935 82 147 3.0 3.0 0.00 0.00 0.00 71 1015.6
20260903162431 83 263 1.0 1.0 0.00 0.00 0.00 75 1015.6
20260903161926 83 214 2.0 2.0 0.00 0.00 0.00 75 1015.6
20260903161421 82 139 1.0 1.0 0.00 0.00 0.00 79 1015.6
20260903160918 82 147 0.0 0.0 0.00 0.00 0.00 77 1015.6
20260903160416 82 305 3.0 5.0 0.00 0.00 0.00 73 1015.6
20260903155915 82 195 1.0 1.0 0.00 0.00 0.00 80 1015.6
20260903155410 80 350 3.0 5.0 0.00 0.00 0.00 82 1015.6
20260903154906 80 334 5.0 7.0 0.00 0.00 0.00 81 1015.9
20260903154402 81 146 1.0 2.0 0.00 0.00 0.00 80 1015.2
20260903153856 81 163 0.0 0.0 0.00 0.00 0.00 82 1015.9
20260903153352 80 117 1.0 1.0 0.00 0.00 0.00 83 1015.6
20260903152849 79 162 0.0 0.0 0.00 0.00 0.00 86 1015.9
20260903152344 80 57 2.0 2.0 0.00 0.00 0.00 86 1015.9
20260903151839 79 93 1.0 1.0 0.00 0.00 0.00 85 1015.9
20260903151335 80 164 0.0 0.0 0.00 0.00 0.00 85 1015.9
20260903150835 80 249 1.0 3.0 0.00 0.00 0.00 86 1015.9
20260903150335 79 156 1.0 1.0 0.00 0.00 0.00 87 1015.9
20260903145830 78 155 0.0 1.0 0.00 0.00 0.00 88 1015.6
20260903145325 77 158 0.0 0.0 0.00 0.00 0.00 92 1016.2
20260903144824 76 152 0.0 0.0 0.00 0.00 0.00 94 1015.9
20260903144319 75 163 1.0 1.0 0.00 0.00 0.00 93 1015.9
20260903143815 75 155 0.0 0.0 0.00 0.00 0.00 94 1015.9
20260903143312 75 170 2.0 3.0 0.00 0.00 0.00 95 1015.9
20260903142807 74 212 2.0 3.0 0.00 0.00 0.00 95 1015.9
20260903142306 74 159 0.0 0.0 0.00 0.00 0.00 96 1015.9
20260903141758 74 130 1.0 2.0 0.00 0.00 0.00 97 1015.9
20260903141255 73 166 1.0 1.0 0.00 0.00 0.00 97 1015.9
20260903140754 73 163 0.0 0.0 0.00 0.00 0.00 97 1015.6
20260903140249 73 164 0.0 0.0 0.00 0.00 0.00 98 1015.9
20260903135746 73 121 0.0 0.0 0.00 0.00 0.00 98 1015.6
20260903135246 72 152 0.0 0.0 0.00 0.00 0.00 98 1015.9
20260903134744 72 174 1.0 1.0 0.00 0.00 0.00 99 1015.2
20260903134241 72 157 0.0 0.0 0.00 0.00 0.00 99 1015.6
20260903133738 71 133 1.0 2.0 0.00 0.00 0.00 99 1015.6
20260903133235 71 154 0.0 0.0 0.00 0.00 0.00 99 1015.9
20260903132734 71 161 0.0 0.0 0.00 0.00 0.00 99 1015.6
20260903132229 71 165 0.0 0.0 0.00 0.00 0.00 99 1015.6
20260903131725 71 161 0.0 1.0 0.00 0.00 0.00 99 1015.6
20260903131224 70 188 0.0 0.0 0.00 0.00 0.00 99 1015.6
20260903130719 70 171 0.0 1.0 0.00 0.00 0.00 99 1015.9
20260903130214 70 154 0.0 0.0 0.00 0.00 0.00 99 1015.6
20260903125712 70 160 0.0 0.0 0.00 0.00 0.00 99 1015.6
20260903125208 69 157 0.0 0.0 0.00 0.00 0.00 99 1015.9
20260903124706 69 163 0.0 0.0 0.00 0.00 0.00 99 1015.6
20260903124202 69 162 0.0 0.0 0.00 0.00 0.00 99 1015.6
20260903123701 69 163 0.0 0.0 0.00 0.00 0.00 99 1015.6
20260903123200 69 158 0.0 0.0 0.00 0.00 0.00 99 1015.6
20260903122659 69 162 0.0 0.0 0.00 0.00 0.00 99 1015.6
20260903122154 69 169 0.0 0.0 0.00 0.00 0.00 99 1015.9
20260903121653 69 163 0.0 0.0 0.00 0.00 0.00 99 1015.6
20260903121149 69 158 0.0 0.0 0.00 0.00 0.00 99 1015.6
20260903120648 69 162 0.0 0.0 0.00 0.00 0.00 99 1015.6
20260903120143 69 162 0.0 0.0 0.00 0.00 0.00 99 1015.9
20260903115641 69 162 0.0 0.0 0.00 0.00 0.00 99 1015.2
20260903115136 69 162 0.0 0.0 0.00 0.00 0.00 99 1015.6
20260903114632 69 160 0.0 0.0 0.00 0.00 0.00 99 1015.6
20260903114127 69 171 0.0 1.0 0.00 0.00 0.00 99 1015.2
20260903113622 69 164 0.0 0.0 0.00 0.00 0.00 99 1014.9
20260903113118 68 162 0.0 0.0 0.00 0.00 0.00 99 1014.9
20260903112609 68 162 0.0 0.0 0.00 0.00 0.00 99 1014.9
20260903112108 68 162 0.0 0.0 0.00 0.00 0.00 99 1015.2
20260903111607 68 162 0.0 0.0 0.00 0.00 0.00 99 1014.9
20260903111103 68 162 0.0 0.0 0.00 0.00 0.00 99 1014.9
20260903110600 68 162 0.0 0.0 0.00 0.00 0.00 99 1014.9
20260903110059 68 158 0.0 0.0 0.00 0.00 0.00 99 1014.9
20260903105554 68 162 0.0 0.0 0.00 0.00 0.00 99 1014.9
20260903105050 68 162 0.0 0.0 0.00 0.00 0.00 99 1014.9
20260903104549 68 159 0.0 0.0 0.00 0.00 0.00 99 1014.9
20260903104045 68 162 0.0 0.0 0.00 0.00 0.00 99 1014.5
20260903103541 67 165 0.0 0.0 0.00 0.00 0.00 99 1014.5
20260903103037 67 159 0.0 0.0 0.00 0.00 0.00 99 1014.5
20260903102532 67 159 0.0 0.0 0.00 0.00 0.00 99 1014.9
20260903102031 67 158 0.0 0.0 0.00 0.00 0.00 99 1014.5
20260903101526 67 159 0.0 0.0 0.00 0.00 0.00 99 1014.5
20260903101022 67 162 0.0 0.0 0.00 0.00 0.00 99 1014.5
20260903100516 67 158 0.0 0.0 0.00 0.00 0.00 99 1014.9
20260903100009 68 162 0.0 0.0 0.00 0.00 0.00 99 1014.5
20260903095502 68 159 0.0 0.0 0.00 0.00 0.00 99 1014.9
20260903094957 68 159 0.0 0.0 0.00 0.00 0.00 99 1014.2
20260903094456 68 157 0.0 0.0 0.00 0.00 0.00 99 1014.5
20260903093953 68 162 0.0 0.0 0.00 0.00 0.00 99 1014.5
20260903093448 68 162 0.0 0.0 0.00 0.00 0.00 99 1014.9
20260903092943 68 161 0.0 0.0 0.00 0.00 0.00 99 1014.5
20260903092443 68 160 0.0 0.0 0.00 0.00 0.00 99 1014.9
20260903091942 68 162 0.0 0.0 0.00 0.00 0.00 99 1014.9
20260903091440 68 159 0.0 0.0 0.00 0.00 0.00 99 1014.9
20260903090936 68 163 0.0 0.0 0.00 0.00 0.00 99 1014.9
20260903090431 68 163 0.0 0.0 0.00 0.00 0.00 99 1014.9
20260903085930 68 162 0.0 0.0 0.00 0.00 0.00 99 1014.5
20260903085428 68 161 0.0 0.0 0.00 0.00 0.00 99 1014.9
20260903084928 68 162 0.0 0.0 0.00 0.00 0.00 99 1014.5
20260903084427 68 157 0.0 0.0 0.00 0.00 0.00 99 1014.5
20260903083922 68 162 0.0 0.0 0.00 0.00 0.00 99 1014.5
20260903083418 68 164 0.0 0.0 0.00 0.00 0.00 99 1014.5
20260903082917 68 160 0.0 0.0 0.00 0.00 0.00 99 1014.5
20260903082412 68 159 0.0 0.0 0.00 0.00 0.00 99 1014.5
20260903081907 67 159 0.0 0.0 0.00 0.00 0.00 99 1014.9
20260903081402 67 159 0.0 0.0 0.00 0.00 0.00 99 1014.9
20260903080859 67 162 0.0 0.0 0.00 0.00 0.00 99 1014.9
20260903080355 67 158 0.0 0.0 0.00 0.00 0.00 99 1014.2
20260903075855 67 158 0.0 0.0 0.00 0.00 0.00 99 1014.9
20260903075351 68 159 0.0 0.0 0.00 0.00 0.00 99 1014.5
20260903074844 68 157 0.0 0.0 0.00 0.00 0.00 99 1014.5
20260903074338 67 162 0.0 0.0 0.00 0.00 0.00 99 1014.9
20260903073834 67 157 0.0 0.0 0.00 0.00 0.00 99 1014.9
20260903073329 68 160 0.0 0.0 0.00 0.00 0.00 99 1014.9
20260903072825 67 160 0.0 0.0 0.00 0.00 0.00 99 1014.9
20260903072321 68 159 0.0 0.0 0.00 0.00 0.00 99 1014.9
20260903071818 68 159 0.0 0.0 0.00 0.00 0.00 99 1014.9
20260903071313 68 160 0.0 0.0 0.00 0.00 0.00 99 1015.2
20260903070808 68 160 0.0 0.0 0.00 0.00 0.00 99 1015.2
20260903070304 68 162 0.0 0.0 0.00 0.00 0.00 99 1014.9
20260903065759 68 160 0.0 0.0 0.00 0.00 0.00 99 1015.2
20260903065258 68 160 0.0 0.0 0.00 0.00 0.00 99 1015.2
20260903064757 68 161 0.0 0.0 0.00 0.00 0.00 99 1015.2
20260903064253 68 163 0.0 0.0 0.00 0.00 0.00 99 1015.2
20260903063749 68 160 0.0 0.0 0.00 0.00 0.00 99 1014.9
20260903063249 68 162 0.0 0.0 0.00 0.00 0.00 99 1015.2
20260903062745 67 158 0.0 0.0 0.00 0.00 0.00 99 1014.9
20260903062244 68 159 0.0 0.0 0.00 0.00 0.00 99 1014.9
20260903061741 68 160 0.0 0.0 0.00 0.00 0.00 99 1015.2
20260903061239 68 170 0.0 0.0 0.00 0.00 0.00 99 1014.9
20260903060736 68 158 0.0 0.0 0.00 0.00 0.00 99 1014.9
20260903060235 67 164 0.0 0.0 0.00 0.00 0.00 99 1015.2
20260903055732 67 160 0.0 0.0 0.00 0.00 0.00 99 1014.9
20260903055231 67 158 0.0 0.0 0.00 0.00 0.00 99 1014.9
20260903054726 67 160 0.0 0.0 0.00 0.00 0.00 99 1014.9
20260903054221 67 153 0.0 0.0 0.00 0.00 0.00 99 1014.9
20260903053718 67 158 0.0 0.0 0.00 0.00 0.00 99 1014.9
20260903053213 67 158 0.0 0.0 0.00 0.00 0.00 99 1014.9
20260903052709 68 159 0.0 0.0 0.00 0.00 0.00 99 1014.9
20260903052204 68 158 0.0 0.0 0.00 0.00 0.00 99 1014.9
20260903051704 68 158 0.0 0.0 0.00 0.00 0.00 99 1014.9
20260903051200 68 158 0.0 0.0 0.00 0.00 0.00 99 1014.9
20260903050656 68 160 0.0 0.0 0.00 0.00 0.00 99 1014.5
20260903050154 68 153 0.0 0.0 0.00 0.00 0.00 99 1014.9
20260903045650 68 158 0.0 0.0 0.00 0.00 0.00 99 1014.9
20260903045146 68 158 0.0 0.0 0.00 0.00 0.00 99 1014.9
20260903044642 68 158 0.0 0.0 0.00 0.00 0.00 99 1014.9
20260903044137 68 160 0.0 0.0 0.00 0.00 0.00 99 1014.9